[[{"header":{"parameterUnit":"m.s-1","parameterCategory":1,"la1":30.2991,"la2":30.254,"lo1":-89.0895,"lo2":-89.0444,"dy":0.0017,"dx":0.0017,"nx":28,"ny":28,"refTime":"2023-07-18T21:00:00:Z","depth":0,"parameterNumber":2,"parameterNumberName":"U-component_of_WINDS"},"data":[0,0,0,0,0,0,0,0,0,0,0,0,0,0,0,0,0,0,0,0,0,0,0,0,0,0,0,0,0,0,0,0,0,0,0,0,0,0,0,0,0,0,0,0,0,0,0,0,0,0,0,0,0,0,0,0,0,0,-0.7521,-0.7519,0,-0.7412,-0.7411,-0.7409,-0.7327,-0.7326,-0.7325,-0.7325,-0.721,-0.7208,-0.7205,0,0,0,0,0,0,0,0,0,0,0,0,0,-0.7653,-0.7651,-0.7521,-0.7519,-0.7518,-0.7412,-0.7411,-0.7409,-0.7327,-0.7326,-0.7325,-0.7324,-0.7211,-0.7208,-0.7205,0,0,0,0,0,0,0,0,0,0,0,0,0,-0.7575,-0.765,-0.7521,-0.7464,-0.7458,-0.7412,-0.7411,-0.7409,-0.7327,-0.7326,-0.7325,-0.7324,-0.7212,-0.7208,-0.7205,-0.7205,0,0,-0.7194,-0.7192,0,0,0,0,0,0,0,0,-0.758,-0.757,-0.7474,-0.7468,-0.7461,-0.7382,-0.7415,-0.734,-0.7328,-0.7377,-0.7325,-0.7323,-0.7268,-0.726,-0.7241,-0.72,-0.7195,-0.7193,-0.7191,-0.719,-0.7189,0,0,0,0,0,0,0,-0.7585,-0.7575,-0.7477,-0.7473,-0.7465,-0.7443,-0.7431,-0.7401,-0.733,-0.7372,-0.7366,-0.7355,-0.7264,-0.7245,-0.7238,-0.7193,-0.7194,-0.719,-0.7188,-0.7187,-0.7145,-0.7146,0,0,0,0,0,0,-0.76,-0.758,-0.7481,-0.7474,-0.7519,-0.7442,-0.7428,-0.7408,-0.733,-0.7317,-0.7356,-0.7351,-0.7252,-0.7242,-0.7234,-0.7229,-0.719,-0.7187,-0.7185,-0.7144,-0.7145,-0.7147,0,0,0,0,0,0,-0.7603,-0.7592,-0.7485,-0.7525,-0.751,-0.7441,-0.7419,-0.7407,-0.7388,-0.7317,-0.7304,-0.735,-0.725,-0.7239,-0.7213,-0.7224,-0.7185,-0.7182,-0.7143,-0.7145,-0.7146,-0.722,0,0,0,0,0,0,-0.7607,-0.7594,-0.7594,-0.7526,-0.7508,-0.7468,-0.742,-0.7406,-0.7382,-0.7376,-0.7308,-0.7296,-0.7249,-0.7219,-0.7209,-0.7218,-0.7179,-0.7142,-0.7144,-0.7146,-0.7216,-0.7224,-0.723,0,0,0,0,0,-0.7612,-0.7619,-0.7595,-0.7583,-0.7508,-0.7469,-0.7458,-0.7405,-0.7384,-0.7383,-0.7337,-0.7298,-0.7224,-0.7217,-0.7206,-0.7214,-0.7141,-0.7143,-0.7145,-0.7213,-0.7222,-0.723,0,0,0,0,0,0,-0.769,-0.7609,-0.7581,-0.7566,-0.7525,-0.7455,-0.7453,-0.7417,-0.738,-0.7375,-0.7309,-0.7294,-0.7275,-0.7241,-0.7235,-0.7209,-0.7177,-0.7177,-0.7232,-0.7241,-0.7247,-0.7256,-0.7176,0,0,0,0,0,-0.7705,-0.7681,-0.7611,-0.7605,-0.7586,-0.7523,-0.7504,-0.7466,-0.742,-0.7402,-0.7355,-0.7311,-0.7277,-0.7257,-0.7222,-0.721,-0.7194,-0.721,-0.7217,-0.7223,-0.7224,-0.7214,-0.7221,-0.7154,-0.7154,-0.7154,0,0,-0.7736,-0.7689,-0.7678,-0.7619,-0.7583,-0.7558,-0.7509,-0.7485,-0.7466,-0.7398,-0.7371,-0.7335,-0.7281,-0.7262,-0.7252,-0.7234,-0.7239,-0.7226,-0.7232,-0.7229,-0.7217,-0.7224,-0.723,-0.7156,-0.7155,-0.7155,0,0,-0.7781,-0.7744,-0.7734,-0.7698,-0.7644,-0.7602,-0.76,-0.7535,-0.7508,-0.748,-0.7429,-0.7404,-0.7348,-0.7312,-0.7286,-0.7316,-0.7278,-0.7307,-0.7343,-0.7335,-0.734,-0.7344,-0.7355,-0.7359,-0.7308,-0.7308,-0.7308,0,-0.7827,-0.779,-0.7733,-0.7712,-0.7687,-0.7625,-0.7614,-0.7582,-0.7519,-0.7503,-0.7483,-0.7412,-0.7371,-0.7343,-0.735,-0.7331,-0.7325,-0.7314,-0.7344,-0.7348,-0.7351,-0.736,-0.7364,-0.7312,-0.7311,-0.7311,-0.7311,0,-0.7848,-0.7823,-0.7821,-0.7762,-0.7737,-0.7721,-0.7661,-0.7641,-0.7606,-0.7565,-0.7537,-0.7486,-0.744,-0.743,-0.7395,-0.7396,-0.7386,-0.7357,-0.7323,-0.7362,-0.7369,-0.7372,-0.7317,-0.7316,-0.7315,-0.7314,0,0,-0.794,-0.785,-0.785,-0.7822,-0.7757,-0.7736,-0.7716,-0.7672,-0.7657,-0.7615,-0.7596,-0.755,-0.7522,-0.7493,-0.7452,-0.7444,-0.7471,-0.7415,-0.7413,-0.7427,-0.7468,-0.7492,-0.7497,-0.7445,-0.7445,-0.7446,-0.7473,0,-0.7975,-0.7938,-0.7886,-0.7866,-0.7841,-0.7781,-0.7763,-0.7721,-0.7682,-0.7655,-0.7611,-0.7579,-0.7545,-0.7527,-0.7516,-0.747,-0.7478,-0.7467,-0.7426,-0.7425,-0.7442,-0.75,-0.7525,-0.7553,-0.7475,-0.7476,-0.7476,0,-0.8011,-0.7973,-0.7951,-0.7887,-0.7874,-0.786,-0.7815,-0.7789,-0.7739,-0.7711,-0.7679,-0.7635,-0.761,-0.758,-0.7543,-0.7537,-0.7517,-0.7491,-0.7491,-0.7485,-0.7454,-0.7496,-0.7561,-0.7565,-0.748,-0.748,-0.7479,0,-0.808,-0.8023,-0.8003,-0.7981,-0.7906,-0.7897,-0.7865,-0.7814,-0.779,-0.775,-0.7733,-0.769,-0.7667,-0.7634,-0.7579,-0.7563,-0.7549,-0.7514,-0.7524,-0.7526,-0.7525,-0.7526,-0.7587,-0.7512,-0.7512,-0.7512,-0.7511,0,-0.8125,-0.8114,-0.8033,-0.802,-0.8005,-0.7944,-0.793,-0.7893,-0.7847,-0.7825,-0.777,-0.775,-0.7679,-0.765,-0.7607,-0.7583,-0.7573,-0.7549,-0.7538,-0.7554,-0.7558,-0.754,-0.7537,-0.7513,-0.7512,-0.7512,-0.7512,0,-0.82,-0.8146,-0.8119,-0.805,-0.8032,-0.8024,-0.7964,-0.7948,-0.7906,-0.7879,-0.7869,-0.7802,-0.7765,-0.7707,-0.7653,-0.7624,-0.7608,-0.7589,-0.7625,-0.7619,-0.7632,-0.7632,-0.7685,-0.7688,-0.7611,-0.7612,-0.7613,0,-0.8233,-0.8223,-0.8152,-0.8134,-0.8104,-0.8075,-0.8051,-0.7989,-0.7966,-0.7908,-0.7899,-0.7858,-0.7822,-0.7766,-0.7712,-0.767,-0.765,-0.7671,-0.7643,-0.766,-0.765,-0.7651,-0.765,-0.7678,-0.7679,-0.768,-0.7681,0,-0.8296,-0.8269,-0.8237,-0.8194,-0.8167,-0.813,-0.8091,-0.8078,-0.8008,-0.7984,-0.7947,-0.7919,-0.7864,-0.7823,-0.7774,-0.7739,-0.7698,-0.769,-0.769,-0.7707,-0.7729,-0.7717,-0.7643,-0.7689,-0.7689,-0.7688,-0.7687,-0.7687,-0.8351,-0.8339,-0.8287,-0.8252,-0.8216,-0.818,-0.8162,-0.8117,-0.8085,-0.8036,-0.8001,-0.7966,-0.7914,-0.7843,-0.7811,-0.7781,-0.7763,-0.7763,-0.7763,-0.7764,-0.777,-0.7733,-0.7772,-0.7771,-0.7771,-0.7771,-0.7771,0,-0.8411,-0.8375,-0.8343,-0.829,-0.8262,-0.8226,-0.818,-0.8159,-0.8129,-0.8084,-0.805,-0.8006,-0.7966,-0.7909,-0.7865,-0.7852,-0.7832,-0.7842,-0.7843,-0.7835,-0.7789,-0.7794,-0.7859,-0.7859,-0.7859,-0.7859,-0.7859,-0.7859,-0.8439,-0.8417,-0.8384,-0.8342,-0.8305,-0.827,-0.8247,-0.8213,-0.8177,-0.8131,-0.8098,-0.8061,-0.8011,-0.7962,-0.7924,-0.7908,-0.7894,-0.7911,-0.7889,-0.7847,-0.7839,-0.7831,-0.7835,-0.7908,-0.7908,-0.7937,-0.7937,-0.7938]},{"header":{"parameterUnit":"m.s-1","parameterCategory":1,"la1":30.2991,"la2":30.254,"lo1":-89.0895,"lo2":-89.0444,"dy":0.0017,"dx":0.0017,"nx":28,"ny":28,"refTime":"2023-07-18T21:00:00:Z","depth":0,"parameterNumber":3,"parameterNumberName":"V-component_of_WINDS"},"data":[0,0,0,0,0,0,0,0,0,0,0,0,0,0,0,0,0,0,0,0,0,0,0,0,0,0,0,0,0,0,0,0,0,0,0,0,0,0,0,0,0,0,0,0,0,0,0,0,0,0,0,0,0,0,0,0,0,0,3.4209,3.4208,0,3.4169,3.4168,3.4168,3.417,3.417,3.4171,3.4171,3.4124,3.4122,3.412,0,0,0,0,0,0,0,0,0,0,0,0,0,3.4281,3.4279,3.4209,3.4208,3.4208,3.4169,3.4168,3.4168,3.4169,3.417,3.4171,3.4172,3.4124,3.4122,3.412,0,0,0,0,0,0,0,0,0,0,0,0,0,3.4246,3.4279,3.4209,3.4204,3.4203,3.4169,3.4168,3.4167,3.4169,3.417,3.4171,3.4172,3.4125,3.4122,3.412,3.4085,0,0,3.4111,3.411,0,0,0,0,0,0,0,0,3.4248,3.4243,3.4205,3.4204,3.4203,3.4175,3.4176,3.414,3.4169,3.4182,3.4171,3.4172,3.414,3.4136,3.4126,3.4083,3.4081,3.4111,3.411,3.4108,3.4108,0,0,0,0,0,0,0,3.425,3.4245,3.4193,3.4205,3.4204,3.4202,3.4198,3.4169,3.4156,3.4181,3.4181,3.4177,3.4139,3.4129,3.4125,3.408,3.4111,3.4109,3.4107,3.4106,3.4006,3.4005,0,0,0,0,0,0,3.4254,3.4247,3.4194,3.4191,3.4228,3.42,3.4196,3.4183,3.4157,3.4153,3.4176,3.4177,3.4133,3.4128,3.4123,3.4081,3.4108,3.4106,3.4104,3.4007,3.4006,3.4005,0,0,0,0,0,0,3.4256,3.425,3.4196,3.4219,3.4212,3.4198,3.4184,3.4182,3.4172,3.4153,3.415,3.4168,3.4134,3.4127,3.4095,3.4079,3.4105,3.4102,3.4008,3.4007,3.4005,3.3996,0,0,0,0,0,0,3.4258,3.425,3.4238,3.4219,3.4211,3.417,3.4183,3.4181,3.4168,3.4168,3.4145,3.4141,3.4134,3.4099,3.4092,3.4076,3.41,3.4009,3.4007,3.4006,3.3997,3.3994,3.3991,0,0,0,0,0,3.4261,3.4236,3.4238,3.4231,3.4196,3.4169,3.4164,3.4158,3.4166,3.4153,3.4141,3.4142,3.4082,3.4096,3.4088,3.4071,3.401,3.4008,3.4006,3.3998,3.3994,3.3991,0,0,0,0,0,0,3.4252,3.4233,3.4235,3.4204,3.4188,3.4169,3.4153,3.4154,3.4133,3.4135,3.4125,3.412,3.4088,3.4076,3.4091,3.4035,3.4047,3.4043,3.4044,3.404,3.4037,3.404,3.4098,0,0,0,0,0,3.4247,3.4228,3.4212,3.4186,3.4178,3.4167,3.4155,3.4151,3.4134,3.4126,3.4112,3.4093,3.407,3.4054,3.4032,3.3996,3.399,3.398,3.3977,3.3974,3.3971,3.3949,3.3944,3.3997,3.3997,3.3997,0,0,3.4235,3.4223,3.4211,3.4184,3.4171,3.415,3.4161,3.4138,3.4122,3.4122,3.4091,3.408,3.4058,3.4024,3.4008,3.4013,3.3955,3.3971,3.397,3.3967,3.3946,3.3941,3.3937,3.3995,3.3996,3.3996,0,0,3.4203,3.4192,3.4169,3.4157,3.4138,3.4131,3.4126,3.4107,3.41,3.4069,3.4069,3.4048,3.4009,3.3993,3.398,3.3942,3.3941,3.3935,3.3918,3.3898,3.3893,3.389,3.3875,3.387,3.3931,3.3931,3.3931,0,3.419,3.416,3.4157,3.4134,3.4122,3.4123,3.4099,3.4086,3.406,3.405,3.4057,3.4008,3.3993,3.3955,3.3946,3.3936,3.3927,3.3937,3.3895,3.3891,3.3887,3.3873,3.3868,3.3931,3.3931,3.3931,3.3931,0,3.4145,3.4124,3.4107,3.4085,3.407,3.4047,3.4038,3.4023,3.4021,3.4013,3.3981,3.3963,3.3937,3.3928,3.3925,3.3889,3.3892,3.3897,3.3908,3.3882,3.3868,3.3863,3.393,3.393,3.393,3.393,0,0,3.4105,3.4082,3.4075,3.4065,3.4045,3.4028,3.4004,3.3981,3.3968,3.395,3.3928,3.3895,3.3899,3.3884,3.3879,3.3862,3.3831,3.3868,3.3868,3.3861,3.3789,3.3784,3.3778,3.3832,3.3831,3.383,3.379,0,3.407,3.403,3.4026,3.3989,3.3969,3.397,3.3949,3.3933,3.3924,3.3904,3.3894,3.387,3.3878,3.3869,3.3852,3.3839,3.3816,3.3842,3.3809,3.3808,3.3813,3.3772,3.3767,3.373,3.3785,3.3784,3.3783,0,3.4023,3.4007,3.3968,3.3951,3.3942,3.3924,3.3902,3.3883,3.3865,3.386,3.3843,3.3841,3.3814,3.3827,3.3789,3.3806,3.3792,3.3784,3.3782,3.3778,3.3793,3.3765,3.3719,3.3713,3.3775,3.3776,3.3776,0,3.3997,3.3964,3.3937,3.3928,3.3908,3.3894,3.3885,3.3867,3.3854,3.3834,3.3824,3.3801,3.3787,3.3768,3.3759,3.377,3.372,3.3733,3.3713,3.3713,3.3701,3.3702,3.3651,3.3695,3.3695,3.3695,3.3695,0,3.3958,3.3934,3.3925,3.3908,3.3881,3.3876,3.3848,3.3839,3.3823,3.3803,3.3802,3.3783,3.3772,3.375,3.3742,3.371,3.3705,3.3698,3.3696,3.3697,3.3698,3.3687,3.3689,3.3693,3.3694,3.3694,3.3694,0,3.3923,3.3917,3.3887,3.387,3.3866,3.3846,3.3831,3.3813,3.3805,3.3779,3.3773,3.3759,3.3733,3.3723,3.369,3.3685,3.3648,3.3649,3.3655,3.3654,3.3634,3.3636,3.3574,3.3565,3.3615,3.3615,3.3614,0,3.3898,3.388,3.3862,3.385,3.384,3.382,3.3806,3.38,3.3786,3.3763,3.3748,3.3723,3.3702,3.3661,3.3646,3.3621,3.362,3.36,3.3616,3.3618,3.3618,3.3619,3.3616,3.3597,3.3596,3.3596,3.3596,0,3.3854,3.3851,3.3833,3.3814,3.3798,3.3782,3.3766,3.3755,3.3746,3.3729,3.3704,3.3689,3.3657,3.3631,3.3605,3.3593,3.3591,3.3591,3.3585,3.3585,3.359,3.3586,3.3646,3.3592,3.3592,3.3593,3.3593,3.3593,3.3822,3.3806,3.3791,3.377,3.3758,3.3743,3.3726,3.3717,3.3696,3.3671,3.3669,3.3641,3.3622,3.3588,3.3574,3.3551,3.3556,3.3547,3.3545,3.3542,3.3541,3.3595,3.3547,3.3547,3.3547,3.3547,3.3547,0,3.3777,3.3768,3.3749,3.3728,3.3711,3.3715,3.3697,3.3682,3.3659,3.3642,3.3622,3.3593,3.3568,3.3552,3.3526,3.3511,3.351,3.3504,3.3504,3.3501,3.3538,3.3546,3.3505,3.3505,3.3505,3.3505,3.3505,3.3505,3.3751,3.3724,3.372,3.3686,3.3676,3.3651,3.3641,3.3626,3.3613,3.3581,3.3561,3.3552,3.3535,3.3508,3.3484,3.348,3.347,3.3464,3.346,3.3494,3.3499,3.3503,3.351,3.3462,3.3462,3.3424,3.3424,3.3424]}]]